www.pogodaiklimat.ru

Погода и климат >> Архив погоды >> Россия >> Чукотка >> Чаун


ПОГОДА в Чауне

  • Прогноз погоды в Чауне
  • Монитор погоды в Чауне

АРХИВ ПОГОДЫ в Чауне

Время (UTC), дата Ветер
(напр.,м/с)
 
Видим.   Явления Облачность Т
(С)
Тd
(С)
f
(%)
Тe
(С)
Тes
(С)
Комфортность P
(гПа)
Po
(гПа)
Тmin
(С)
Tmax
(С)
R
(мм)
R24
(мм)
S
(см)
06 17.05 ЮВ 6
{9}
50 км 9/0
[Ci fib]
-1.0 -3.2 85 -8 -7 1011.4 1010.8
09 17.05 ЮВ 4
{8}
20 км 9/0
[Ac trans]
-1.8 -4.0 85 -8 -8 1011.4 1010.8 -0.5
12 17.05 ЮВ 5
{8}
20 км 10/0
[Ac und]
-2.1 -3.9 87 -9 -9 1011.2 1010.6
15 17.05 ЮВ 3
{6}
4000 м слаб. снег 10/3 200 м
[Frnb As op]
-2.7 -3.4 95 -8 -8 1011.5 1010.9
18 17.05 З 5
{6}
20 км {снег} 10/3 200 м
[St Ac und]
-3.7 -4.5 94 -11 -11 1012.5 1011.9
21 17.05 З 5
{8}
20 км 10/3 200 м
[St Ac und]
-2.7 -4.0 91 -10 -9 1013.3 1012.7 -3.7 0.3 40
00 18.05 СЗ 11-12
{14}
4000 м метель 10/3 200 м
[St Ac und]
-3.0 -3.3 98 -13 -13 1014.6 1014.0
03 18.05 СЗ 9-12
{14}
20 км сильный позёмок 10/3 200 м
[St Ac und]
-3.8 -5.3 89 -13 -13 1016.0 1015.4
06 18.05 СЗ 10-12
{13}
20 км сильный позёмок 9/3 200 м
[St Ac trans]
-5.0 -6.3 91 -15 -15 1017.0 1016.4
09 18.05 СЗ 10-12
{14}
20 км позёмок 9/3 200 м
[St Ac trans]
-5.9 -7.0 92 -16 -16 1017.6 1017.0 -0.9
12 18.05 СЗ 10-12
{14}
20 км сильный позёмок 10/3 200 м
[St Ac und]
-6.0 -7.1 92 -16 -16 1018.5 1017.9
15 18.05 СЗ 10-12
{13}
4000 м слаб. снег {метель} 10/3 200 м
[Frnb As op]
-7.1 -8.4 90 -17 -17 1019.2 1018.6
18 18.05 СЗ 10-12
{13}
20 км сильный позёмок 9/3 200 м
[St Ac trans]
-8.9 -10.4 89 -19 -19 1020.1 1019.5
21 18.05 СЗ 7
{12}
20 км позёмок 9/3 200 м
[St Ac trans]
-8.6 -10.5 86 -18 -17 1020.8 1020.2 -9.5 0.5 40
00 19.05 СЗ 6
{9}
20 км позёмок 9/3 200 м
[St Ac trans]
-7.6 -10.6 79 -16 -14 1020.9 1020.3
03 19.05 СЗ 5
{8}
20 км {метель} 8/3 200 м
[St Ac trans]
-7.6 -11.1 76 -15 -13 1021.0 1020.4
06 19.05 СЗ 2
{7}
20 км {метель} 4/0
[Ac trans]
-8.3 -12.5 72 -13 -10 1020.5 1019.9
09 19.05 С 2
{3}
20 км 3/0
[Ac trans]
-11.6 -13.6 85 -16 -16 1019.9 1019.3 -7.3
12 19.05 СВ 2
{3}
20 км 6/0
[Ac trans]
-13.4 -14.7 90 -18 -18 1019.4 1018.8
15 19.05 ЮВ 4
{5}
20 км 6/0
[Ac trans]
-13.5 -15.5 85 -21 -21 1018.4 1017.8
18 19.05 ЮВ 2
{5}
20 км 6/0
[Ac trans]
-11.1 -12.4 90 -16 -15 1017.6 1017.0
21 19.05 ЮВ 2
{4}
20 км 3/0
[Ac trans]
-9.7 -11.4 87 -14 -9 1016.4 1015.8 -16.0 40
00 20.05 СВ 1
{3}
50 км ясно -7.1 -9.2 85 -9 +2 1015.4 1014.8
03 20.05 СЗ 1
{3}
50 км 8/0
[Ci sp]
-3.1 -7.0 74 -5 +3 1014.8 1014.2
06 20.05 ЮВ 2
{3}
50 км 4/0
[Ci sp]
-0.9 -3.7 81 -5 -1 1014.2 1013.6
09 20.05 Ю 2
{5}
50 км 3/0
[Ci sp]
-4.9 -7.0 85 -9 -9 1014.9 1014.3 -0.7
12 20.05 Ю 3
{5}
50 км 3/0
[Ci sp]
-7.1 -8.4 90 -13 -13 1015.6 1015.0
15 20.05 ЮВ 7
{8}
50 км 3/0
[Ci sp]
-4.9 -7.0 85 -13 -13 1016.1 1015.5
18 20.05 ЮВ 4
{8}
50 км 3/0
[Ci sp]
-5.7 -7.9 84 -12 -11 1017.0 1016.4
21 20.05 ЮВ 6
{8}
50 км 4/0
[Ci sp]
-0.9 -3.4 83 -8 -5 1017.5 1016.9 -8.4 40
00 21.05 ЮВ 4
{7}
50 км 4/0
[Ci sp]
+0.5 -2.5 80 -5 +1 1018.1 1017.5
03 21.05 ЮВ 1
{5}
50 км 4/0
[Ci sp]
+1.9 -1.8 76 0 +9 1018.6 1018.0
06 21.05 СЗ 8
{9}
50 км 10/0
[Ac und]
-0.3 -2.1 88 -8 -8 1019.9 1019.3
09 21.05 СЗ 10-12
{12}
4000 м слаб. снег 10/3 200 м
[Frnb As op]
-1.4 -2.3 94 -10 -10 1021.4 1020.8 +2.7 0.4
12 21.05 СЗ 10-12
{12}
4000 м слаб. снег {метель} 10/3 200 м
[Frnb As op]
-3.3 -4.4 92 -13 -13 1022.6 1022.0
15 21.05 СЗ 9-12
{12}
4000 м слаб. снег {метель} 10/3 200 м
[Frnb As op]
-4.7 -5.7 93 -14 -14 1023.8 1023.2
18 21.05 СЗ 8-10
{12}
20 км позёмок {снег} 10/3 200 м
[St Ac und]
-5.5 -6.6 92 -15 -14 1025.0 1024.4
21 21.05 СЗ 6
{10}
20 км позёмок 9/3 200 м
[St Ac trans]
-5.5 -7.3 87 -13 -13 1025.4 1024.8 -5.8 0.6 40
00 22.05 СЗ 7
{8}
20 км {метель} 10/3 200 м
[St Ac und]
-5.4 -7.5 85 -14 -13 1026.4 1025.8
03 22.05 СЗ 6
{8}
20 км 9/3 200 м
[St Ac trans]
-5.2 -7.7 83 -13 -12 1026.8 1026.2
06 22.05 СЗ 5
{7}
20 км 9/3 200 м
[St Ac trans]
-5.1 -7.2 85 -12 -12 1026.7 1026.1
09 22.05 З 3
{6}
20 км 9/3 200 м
[St Ac trans]
-5.2 -7.3 85 -11 -11 1027.0 1026.4 -4.8
12 22.05 СЗ 2
{4}
20 км 9/0
[Ac trans]
-5.6 -7.0 90 -10 -10 1026.7 1026.1
15 22.05 З 1
{3}
20 км 4/0
[Ac trans]
-9.2 -10.3 92 -12 -11 1025.8 1025.2
18 22.05 В 2
{2}
20 км 10/3 200 м
[St Ac und]
-7.2 -8.5 90 -12 -11 1025.1 1024.5
21 22.05 В 3
{5}
20 км 10/3 200 м
[St Ac und]
-6.4 -7.6 91 -12 -11 1023.0 1022.4 -10.0 40
00 23.05 В 2
{4}
4000 м дымка 10/6 180 м
[St Ac und]
-4.8 -6.1 91 -9 -8 1020.2 1019.6
03 23.05 С 2
{3}
4000 м дымка 10/5 200 м
[St Ac und]
-3.9 -4.7 94 -8 -7 1017.4 1016.8
06 23.05 СЗ 3
{5}
20 км 4/1 200 м
[St Ac trans]
-2.6 -3.9 91 -8 -6 1014.9 1014.3
09 23.05 З 3
{4}
4000 м дымка 4/0
[Ac trans]
-5.4 -6.1 95 -11 -11 1013.3 1012.7 -2.6
12 23.05 СЗ 2
{3}
4000 м дымка 4/0
[Ac trans]
-8.7 -9.8 92 -13 -13 1012.0 1011.4
15 23.05 СВ 2
{3}
20 км 6/0
[Ac trans]
-9.9 -11.1 91 -14 -14 1010.8 1010.2
18 23.05 ЮВ 2
{5}
20 км 9/0
[Ac trans]
-3.5 -4.6 92 -8 -7 1010.0 1009.4
21 23.05 В 6
{8}
20 км 9/3
[St Ac trans]
+1.9 +0.3 89 -4 -3 1009.7 1009.1 -9.9 39
00 24.05 ЮВ 4
{7}
20 км 6/1 200 м
[St Ac trans]
+1.0 -0.7 88 -4 -0 1009.2 1008.6
03 24.05 В 6
{7}
20 км 9/3 200 м
[St Ac trans]
+2.3 +0.4 87 -4 -3 1008.9 1008.3

 

Местоположение метеостанции Чаун (Чукотка, Россия): широта 68.88 долгота 170.70 высота над уровнем моря 5 м.

В архиве по умолчанию представлена погода в Чауне за последнюю неделю. Архивные данные за месяц целиком и за предыдущие месяцы, начиная с января 2011 года, Вы можете получить, выбрав интересующий диапазон дат из раскрывающегося списка и нажав кнопку "Ввод!".


*Определитесь, кто Вы:
робот инопланетянин человек

Внимание! Время в таблицах - всемирное. Для получения местного времени необходимо прибавить поправку, которая равна 12 ч.

Смотрите также архив погоды в соседних городах и на ближайших метеорологических станциях:

Погода на 21 км (Чукотка, Россия) (84 км)
Погода в Комсомольской (Чукотка, Россия) (89 км)
Погода в Певеке (Чукотка, Россия) (93 км)
Погода в Майской (Чукотка, Россия) (117 км)
Погода в Валькаркае (Чукотка, Россия) (134 км)
Погода в Паляваам-Глубокой (Чукотка, Россия) (137 км)
Погода на Айон Острове (Чукотка, Россия) (160 км)
Погода в Раучуе (Чукотка, Россия) (180 км)
Погода в Билибино (Чукотка, Россия) (198 км)
Погода в Илирнее (Чукотка, Россия) (215 км)

Пояснения к столбцам:

Ветер - указаны скорость ветра в м/с - средняя за 10 мин, порывы в срок и между сроками (в фигурных скобках) и направление, откуда дует ветер: С - северный, СВ - северо-восточный, В - восточный, ЮВ - юго-восточный, Ю - южный, ЮЗ - юго-западный, З - западный, СЗ - северо-западный.
Видимость - горизонтальная дальность видимости в метрах или километрах. При видимости от 1 до 10 км при отсутствии осадков обычно наблюдается дымка, при ухудшении видимости до 1 км и менее - туман. В сухую погоду видимость может ухудшаться дымом, пылью или мглою.
Явления - указаны атмосферные явления, наблюдавшиеся в срок или в последний час перед сроком; фигурными скобками обозначены явления, наблюдавшиеся между сроками (за 1-3 часа до срока); квадратными скобками обозначены град или гололедные отложения с указанием их диаметра в мм.
Облачность - указаны через наклонную черту общая и нижняя облачность в баллах и высота нижней границы облаков в метрах; квадратными скобками обозначены формы облаков: Ci - перистые, Cs - перисто-слоистые, Cc - перисто-кучевые, Ac - высококучевые, As - высокослоистые, Sc - слоисто-кучевые, Ns - слоисто-дождевые, Cu - кучевые, Cb - кучево-дождевые. Подробнее классификацию облаков см. в Атласе облаков (PDF).
T - Температура воздуха - температура, измеренная на высоте 2 м над землей.
Td - Температура точки росы - температура, при понижении до которой содержащийся в воздухе водяной пар достигнет насыщения.
f - Относительная влажность воздуха - влажноcть воздуха, измеренная на высоте 2 м над землей.
Te - Эффективная температура - температура, которую ощущает одетый по сезону человек в тени. Характеристика душности погоды. При расчете учитывается влияние влажности воздуха и скорости ветра на теплоощущения человека.
Tes - Эффективная температура на солнце - температура, которую ощущает человек, с поправкой на солнечный нагрев. Характеристика знойности погоды. Зависит от высоты солнца над горизонтом, облачности и скорости ветра. Ночью, в пасмурную погоду, а также при ветре 12 м/с и более поправка равна нулю.
P - Атмосферное давление - приведенное к уровню моря атмосферное давление.
Po - Атмосферное давление - измеренное на уровне метеостанции атмосферное давление.
Tmin - Минимальная температура - минимум температуры воздуха на высоте 2 м над землей.
Tmax - Максимальная температура - максимум температуры воздуха на высоте 2 м над землей.
R - Количество осадков - Количество выпавших осадков за период времени, мм. При наведении курсора мыши на число - период времени, за который выпало указанное количество осадков.
R24 - Количество осадков - Количество выпавших осадков за 24 часа, мм.
S - Снежный покров - Высота снежного покрова, см. При наведении курсора мыши на число - состояние снежного покрова и степень покрытия местности в баллах.